M I D A S
Marine Information and Data Acquisition System
Tripno 2252 of the Zeeleeuw from 2012-01-10 07:41:26 to 2012-01-10 16:58:52
Back to CruiseResearch ActivitiesStationsMapUnderway DataData graphs

EquipmentUnitsComments
TimeDGPSUTC
LatitudeDGPSDM.mWGS84
LongitudeDGPSDM.mWGS84
SpeedMeteo Stationm/sRelative wind speed
DirectionMeteo StationdegRelative wind direction
TemperatureMeteo Stationdeg CelciusAir temperature
PressureMeteo StationPaAtmospheric pressure
HumidityMeteo Station%Relative humidity
Missing or incorrect values are displayed as -999
Metereological data collected by the RV Zeeleeuw from 2012-01-10 07:44:33 to 2012-01-10 17:02:15
                                                                                    Next 1000 lines
Time Latitude Longitude Speed Direction Temperature Pressure Humidity
2012-01-10 07:44:42 51°13.635 2°56.012 0.8 44 7.5 103330 49
2012-01-10 07:44:47 51°13.637 2°56.007 1.1 75 7.5 103330 49
2012-01-10 07:44:52 51°13.638 2°56.002 2 28 7.5 103340 49
2012-01-10 07:44:58 51°13.64 2°55.994 2.4 75 7.5 103340 49
2012-01-10 07:45:03 51°13.642 2°55.987 2.3 43 7.5 103330 48
2012-01-10 07:45:10 51°13.644 2°55.977 2.9 75 7.5 103330 48
2012-01-10 07:45:14 51°13.645 2°55.972 2.8 26 7.5 103330 50
2012-01-10 07:45:20 51°13.647 2°55.963 2.4 43 7.5 103330 50
2012-01-10 07:45:25 51°13.649 2°55.955 4 26 7.5 103330 51
2012-01-10 07:45:30 51°13.65 2°55.947 3 74 7.5 103330 51
2012-01-10 07:45:34 51°13.652 2°55.94 3.3 22 7.5 103330 46
2012-01-10 07:45:40 51°13.654 2°55.93 3 79 7.5 103330 46
2012-01-10 07:45:45 51°13.656 2°55.922 3.7 20 7.5 103330 51
2012-01-10 07:45:50 51°13.658 2°55.913 3.3 38 7.5 103330 51
2012-01-10 07:45:54 51°13.659 2°55.907 3.6 40 7.5 103340 49
2012-01-10 07:46:00 51°13.662 2°55.896 3.2 80 7.5 103340 49
2012-01-10 07:46:05 51°13.665 2°55.887 3.3 41 7.5 103330 49
2012-01-10 07:46:10 51°13.667 2°55.878 3.1 45 7.5 103330 49
2012-01-10 07:46:14 51°13.67 2°55.871 3.1 40 7.5 103330 47
2012-01-10 07:46:20 51°13.673 2°55.86 2.5 75 7.5 103330 47
2012-01-10 07:46:25 51°13.676 2°55.85 2.7 43 7.5 103330 47
2012-01-10 07:46:30 51°13.68 2°55.841 2.5 52 7.5 103330 47
2012-01-10 07:46:34 51°13.683 2°55.834 3.1 43 7.5 103330 48
2012-01-10 07:46:40 51°13.687 2°55.823 2.5 40 7.5 103330 48
2012-01-10 07:46:45 51°13.691 2°55.813 2.5 42 7.5 103330 51
2012-01-10 07:46:50 51°13.695 2°55.804 3.3 52 7.5 103330 51
2012-01-10 07:46:54 51°13.698 2°55.797 2.7 38 7.5 103330 48
2012-01-10 07:47:00 51°13.703 2°55.785 2.4 41 7.5 103330 48
2012-01-10 07:47:05 51°13.707 2°55.776 2.6 44 7.5 103330 51
2012-01-10 07:47:10 51°13.712 2°55.767 2.7 38 7.5 103330 51
2012-01-10 07:47:14 51°13.715 2°55.76 2.8 43 7.5 103330 48
2012-01-10 07:47:20 51°13.721 2°55.749 2.9 38 7.5 103330 48
2012-01-10 07:47:25 51°13.725 2°55.74 3 37 7.5 103330 48
2012-01-10 07:47:30 51°13.73 2°55.731 2.9 41 7.5 103330 48
2012-01-10 07:47:34 51°13.734 2°55.724 3.1 23 7.5 103330 48
2012-01-10 07:47:40 51°13.74 2°55.714 2.5 43 7.5 103330 48
2012-01-10 07:47:45 51°13.745 2°55.706 2.6 39 7.5 103330 48
2012-01-10 07:47:50 51°13.75 2°55.698 2.4 37 7.5 103330 48
2012-01-10 07:47:55 51°13.756 2°55.691 2.8 42 7.5 103330 48
2012-01-10 07:48:00 51°13.762 2°55.684 2.5 41 7.5 103330 48
2012-01-10 07:48:05 51°13.768 2°55.677 2.5 39 7.5 103330 48
2012-01-10 07:48:10 51°13.774 2°55.67 2 33 7.5 103330 48
2012-01-10 07:48:15 51°13.78 2°55.664 2.1 33 7.5 103330 47
2012-01-10 07:48:20 51°13.787 2°55.658 1.6 40 7.5 103330 47
2012-01-10 07:48:25 51°13.794 2°55.653 1.1 21 7.5 103330 50
2012-01-10 07:48:30 51°13.8 2°55.648 1.4 53 7.5 103330 50
2012-01-10 07:48:35 51°13.807 2°55.644 1.9 44 7.6 103330 47
2012-01-10 07:48:40 51°13.815 2°55.639 2.1 41 7.6 103330 47
2012-01-10 07:48:45 51°13.822 2°55.635 1.8 20 7.6 103330 49
2012-01-10 07:48:50 51°13.829 2°55.632 1.7 50 7.6 103330 49
2012-01-10 07:48:54 51°13.835 2°55.63 0.8 20 7.6 103330 49
2012-01-10 07:49:00 51°13.844 2°55.627 1.2 33 7.6 103330 49
2012-01-10 07:49:05 51°13.851 2°55.626 0.9 19 7.6 103330 49
2012-01-10 07:49:10 51°13.858 2°55.624 1.6 39 7.6 103330 49
2012-01-10 07:49:14 51°13.864 2°55.623 1.7 45 7.6 103330 50
2012-01-10 07:49:20 51°13.872 2°55.622 1.5 37 7.6 103330 50
2012-01-10 07:49:25 51°13.879 2°55.622 0.9 42 7.6 103330 49
2012-01-10 07:49:30 51°13.886 2°55.622 2.2 36 7.6 103330 49
2012-01-10 07:49:34 51°13.891 2°55.622 0.8 42 7.6 103330 49
2012-01-10 07:49:40 51°13.899 2°55.623 0.9 56 7.6 103330 49
2012-01-10 07:49:45 51°13.905 2°55.624 0.6 40 7.6 103330 48
2012-01-10 07:49:50 51°13.911 2°55.625 0.8 51 7.6 103330 48
2012-01-10 07:49:54 51°13.916 2°55.626 0.4 22 7.6 103330 49
2012-01-10 07:50:00 51°13.922 2°55.629 0.1 18 7.6 103330 49
2012-01-10 07:50:05 51°13.927 2°55.631 0.1 29 7.6 103330 49
2012-01-10 07:50:10 51°13.932 2°55.633 0.2 23 7.6 103330 49
2012-01-10 07:50:15 51°13.937 2°55.635 0.1 14 7.6 103330 49
2012-01-10 07:50:20 51°13.941 2°55.638 -999 13 7.6 103330 49
2012-01-10 07:50:25 51°13.946 2°55.641 -999 13 7.6 103330 49
2012-01-10 07:50:30 51°13.95 2°55.644 -999 7 7.6 103330 49
2012-01-10 07:50:34 51°13.953 2°55.646 -999 7 7.6 103330 49
2012-01-10 07:50:40 51°13.957 2°55.65 -999 7 7.6 103330 49
2012-01-10 07:50:45 51°13.96 2°55.653 -999 7 7.6 103330 49
2012-01-10 07:50:50 51°13.963 2°55.656 -999 7 7.6 103330 49
2012-01-10 07:50:54 51°13.965 2°55.659 0.1 7 7.6 103330 48
2012-01-10 07:51:00 51°13.968 2°55.662 0.1 7 7.6 103330 48
2012-01-10 07:51:05 51°13.97 2°55.664 0.6 6 7.6 103330 49
2012-01-10 07:51:10 51°13.971 2°55.666 0.1 4 7.6 103330 49
2012-01-10 07:51:14 51°13.972 2°55.667 1.3 26 7.6 103330 49
2012-01-10 07:51:20 51°13.973 2°55.668 1.2 281 7.6 103330 49
2012-01-10 07:51:25 51°13.974 2°55.668 2.2 329 7.6 103330 49
2012-01-10 07:51:30 51°13.974 2°55.667 2.8 305 7.6 103330 49
2012-01-10 07:51:34 51°13.974 2°55.665 2.5 319 7.6 103330 47
2012-01-10 07:51:40 51°13.975 2°55.663 2.4 305 7.6 103330 47
2012-01-10 07:51:45 51°13.975 2°55.66 2.1 20 7.6 103330 49
2012-01-10 07:51:50 51°13.976 2°55.657 1.6 311 7.6 103330 49
2012-01-10 07:51:54 51°13.976 2°55.654 2.1 19 7.6 103320 52
2012-01-10 07:52:00 51°13.977 2°55.649 2.8 311 7.6 103320 52
2012-01-10 07:52:05 51°13.978 2°55.644 3 20 7.7 103330 50
2012-01-10 07:52:10 51°13.979 2°55.638 2.5 304 7.7 103330 50
2012-01-10 07:52:14 51°13.98 2°55.634 2.7 19 7.7 103330 52
2012-01-10 07:52:20 51°13.982 2°55.626 3.3 307 7.7 103330 52
2012-01-10 07:52:24 51°13.984 2°55.62 3.5 19 7.7 103330 51
2012-01-10 07:52:30 51°13.987 2°55.61 3.1 309 7.7 103330 51
2012-01-10 07:52:34 51°13.99 2°55.603 3.2 25 7.7 103330 50
2012-01-10 07:52:40 51°13.995 2°55.593 2.6 303 7.7 103330 50
2012-01-10 07:52:45 51°14 2°55.584 3.5 26 7.7 103330 48
2012-01-10 07:52:50 51°14.005 2°55.575 3.7 302 7.7 103330 48
2012-01-10 07:52:54 51°14.009 2°55.567 3.5 315 7.7 103330 49
2012-01-10 07:52:59 51°14.016 2°55.558 2.3 307 7.7 103330 49
2012-01-10 07:53:05 51°14.024 2°55.546 3 318 7.7 103330 51
2012-01-10 07:53:10 51°14.031 2°55.536 2.7 323 7.7 103330 51
2012-01-10 07:53:14 51°14.037 2°55.529 2.3 319 7.7 103330 49
2012-01-10 07:53:19 51°14.046 2°55.519 3.3 303 7.7 103330 49
2012-01-10 07:53:24 51°14.055 2°55.51 3 324 7.7 103330 52
2012-01-10 07:53:29 51°14.064 2°55.5 4 324 7.7 103330 52
2012-01-10 07:53:34 51°14.074 2°55.49 4.6 322 7.7 103330 50
2012-01-10 07:53:39 51°14.084 2°55.48 4.6 303 7.7 103330 50
2012-01-10 07:53:45 51°14.096 2°55.467 4 26 7.7 103330 51
2012-01-10 07:53:50 51°14.106 2°55.457 3.5 305 7.7 103330 51
2012-01-10 07:53:54 51°14.115 2°55.449 3.1 28 7.7 103330 51
2012-01-10 07:54:00 51°14.128 2°55.436 3.4 307 7.7 103330 51
2012-01-10 07:54:05 51°14.139 2°55.426 2.8 319 7.7 103330 48
2012-01-10 07:54:10 51°14.149 2°55.415 4.5 325 7.7 103330 48
2012-01-10 07:54:14 51°14.158 2°55.406 3.5 326 7.7 103330 48
2012-01-10 07:54:20 51°14.171 2°55.393 4.2 323 7.7 103330 48
2012-01-10 07:54:25 51°14.183 2°55.382 4.9 324 7.7 103330 48
2012-01-10 07:54:30 51°14.194 2°55.37 4.1 304 7.7 103330 48
2012-01-10 07:54:34 51°14.203 2°55.361 5.2 329 7.8 103330 51
2012-01-10 07:54:40 51°14.216 2°55.347 5.6 309 7.8 103330 51
2012-01-10 07:54:45 51°14.228 2°55.335 5.3 19 7.8 103330 51
2012-01-10 07:54:50 51°14.239 2°55.324 4.9 281 7.8 103330 51
2012-01-10 07:54:55 51°14.25 2°55.313 6.2 21 7.8 103330 48
2012-01-10 07:55:00 51°14.262 2°55.301 5.9 310 7.8 103330 48
2012-01-10 07:55:05 51°14.273 2°55.29 6.6 22 7.8 103320 48
2012-01-10 07:55:10 51°14.285 2°55.279 5.2 309 7.8 103320 48
2012-01-10 07:55:14 51°14.295 2°55.27 4.9 19 7.8 103330 51
2012-01-10 07:55:19 51°14.306 2°55.259 4.9 304 7.8 103330 51
2012-01-10 07:55:25 51°14.321 2°55.246 5.7 20 7.9 103330 48
2012-01-10 07:55:30 51°14.333 2°55.234 5.6 303 7.9 103330 48
2012-01-10 07:55:34 51°14.342 2°55.224 5.8 316 7.9 103320 51
2012-01-10 07:55:40 51°14.357 2°55.209 6.2 308 7.9 103320 51
2012-01-10 07:55:45 51°14.369 2°55.197 6 19 7.9 103320 48
2012-01-10 07:55:50 51°14.382 2°55.186 5.8 306 7.9 103320 48
2012-01-10 07:55:54 51°14.392 2°55.176 6.3 25 7.9 103320 52
2012-01-10 07:56:00 51°14.407 2°55.161 5.1 308 7.9 103320 52
2012-01-10 07:56:05 51°14.419 2°55.148 6.7 23 7.9 103320 51
2012-01-10 07:56:10 51°14.432 2°55.134 6.3 309 7.9 103320 51
2012-01-10 07:56:14 51°14.442 2°55.124 5.3 19 8 103320 48
2012-01-10 07:56:19 51°14.454 2°55.11 5.7 310 8 103320 48
2012-01-10 07:56:24 51°14.467 2°55.098 5.4 20 8 103320 49
2012-01-10 07:56:30 51°14.483 2°55.082 5.6 302 8 103320 49
2012-01-10 07:56:34 51°14.493 2°55.072 5.6 23 8 103320 51
2012-01-10 07:56:39 51°14.506 2°55.059 4.9 310 8 103320 51
2012-01-10 07:56:44 51°14.519 2°55.045 4.7 26 8 103320 52
2012-01-10 07:56:50 51°14.535 2°55.028 5.4 307 8 103320 52
2012-01-10 07:56:54 51°14.545 2°55.017 5.2 28 8 103320 48
2012-01-10 07:56:59 51°14.557 2°55.002 5.4 310 8 103320 48
2012-01-10 07:57:04 51°14.571 2°54.988 5.1 25 7.9 103320 51
2012-01-10 07:57:09 51°14.584 2°54.973 6.1 303 7.9 103320 51
2012-01-10 07:57:14 51°14.597 2°54.958 6 19 7.9 103320 49
2012-01-10 07:57:18 51°14.608 2°54.947 6.2 310 7.9 103320 49
2012-01-10 07:57:23 51°14.621 2°54.932 6.4 20 7.9 103320 49
2012-01-10 07:57:28 51°14.635 2°54.918 5.4 307 7.9 103320 49
2012-01-10 07:57:33 51°14.649 2°54.904 5.3 27 7.9 103320 51
2012-01-10 07:57:38 51°14.662 2°54.89 5 309 7.9 103320 51
2012-01-10 07:57:42 51°14.674 2°54.878 6 24 7.9 103320 51
2012-01-10 07:57:47 51°14.687 2°54.863 6.1 304 7.9 103320 51
2012-01-10 07:57:52 51°14.701 2°54.848 6.1 24 7.9 103320 48
2012-01-10 07:57:58 51°14.717 2°54.83 6.3 307 7.9 103320 48
2012-01-10 07:58:02 51°14.727 2°54.817 6.2 21 7.9 103320 50
2012-01-10 07:58:07 51°14.741 2°54.802 5 306 7.9 103320 50
2012-01-10 07:58:12 51°14.755 2°54.787 5.9 23 7.9 103320 48
2012-01-10 07:58:17 51°14.769 2°54.773 6.1 308 7.9 103320 48
2012-01-10 07:58:22 51°14.783 2°54.757 5.8 24 7.8 103320 51
2012-01-10 07:58:26 51°14.793 2°54.744 5.3 305 7.8 103320 51
2012-01-10 07:58:31 51°14.807 2°54.728 7 21 7.8 103320 49
2012-01-10 07:58:36 51°14.82 2°54.711 5.6 305 7.8 103320 49
2012-01-10 07:58:41 51°14.833 2°54.695 6.2 20 7.8 103320 51
2012-01-10 07:58:46 51°14.847 2°54.678 5.7 308 7.8 103320 51
2012-01-10 07:58:51 51°14.86 2°54.661 5.4 27 7.8 103320 50
2012-01-10 07:58:56 51°14.873 2°54.644 5.5 308 7.8 103320 50
2012-01-10 07:59:01 51°14.887 2°54.628 5.8 25 7.8 103320 48
2012-01-10 07:59:06 51°14.9 2°54.612 5.3 305 7.8 103320 48
2012-01-10 07:59:11 51°14.913 2°54.595 5.5 21 7.8 103320 51
2012-01-10 07:59:16 51°14.926 2°54.577 6.9 310 7.8 103320 51
2012-01-10 07:59:21 51°14.939 2°54.56 6.1 22 7.8 103320 50
2012-01-10 07:59:26 51°14.952 2°54.543 6.1 308 7.8 103320 50
2012-01-10 07:59:31 51°14.965 2°54.526 5.6 19 7.8 103320 48
2012-01-10 07:59:36 51°14.978 2°54.51 5.1 302 7.8 103320 48
2012-01-10 07:59:41 51°14.992 2°54.495 5.2 23 7.8 103320 50
2012-01-10 07:59:46 51°15.005 2°54.479 5.5 310 7.8 103320 50
2012-01-10 07:59:51 51°15.019 2°54.463 5.4 22 7.8 103320 48
2012-01-10 07:59:57 51°15.035 2°54.444 5.7 305 7.8 103320 48
2012-01-10 08:00:01 51°15.045 2°54.43 5.7 24 7.9 103320 51
2012-01-10 08:00:06 51°15.058 2°54.414 5.8 310 7.9 103320 51
2012-01-10 08:00:11 51°15.071 2°54.396 5.8 21 7.8 103320 51
2012-01-10 08:00:16 51°15.084 2°54.38 6 309 7.8 103320 51
2012-01-10 08:00:21 51°15.096 2°54.363 5.9 19 7.9 103320 48
2012-01-10 08:00:26 51°15.109 2°54.346 5.8 307 7.9 103320 48
2012-01-10 08:00:31 51°15.122 2°54.329 6.4 21 7.9 103320 51
2012-01-10 08:00:36 51°15.135 2°54.312 7.2 308 7.9 103320 51
2012-01-10 08:00:42 51°15.15 2°54.291 5.6 23 7.9 103320 48
2012-01-10 08:00:46 51°15.159 2°54.276 6.4 309 7.9 103320 48
2012-01-10 08:00:51 51°15.172 2°54.259 5.8 21 7.9 103320 51
2012-01-10 08:00:56 51°15.184 2°54.241 6.3 305 7.9 103320 51
2012-01-10 08:01:01 51°15.197 2°54.223 7.4 19 7.9 103320 51
2012-01-10 08:01:06 51°15.209 2°54.206 5.9 310 7.9 103320 51
2012-01-10 08:01:11 51°15.222 2°54.188 5.9 20 7.9 103320 48
2012-01-10 08:01:16 51°15.234 2°54.17 6.1 306 7.9 103320 48
2012-01-10 08:01:21 51°15.247 2°54.153 5.4 19 7.9 103320 49
2012-01-10 08:01:26 51°15.26 2°54.136 6.2 308 7.9 103320 49
2012-01-10 08:01:31 51°15.272 2°54.119 5.1 20 7.9 103320 49
2012-01-10 08:01:36 51°15.285 2°54.102 6.6 309 7.9 103320 49
2012-01-10 08:01:41 51°15.297 2°54.085 5.5 26 7.9 103320 48
2012-01-10 08:01:46 51°15.311 2°54.068 6.1 303 7.9 103320 48
2012-01-10 08:01:51 51°15.323 2°54.051 6.6 25 7.9 103320 50
2012-01-10 08:01:56 51°15.336 2°54.034 6.4 304 7.9 103320 50
2012-01-10 08:02:01 51°15.349 2°54.017 4.8 24 7.9 103320 49
2012-01-10 08:02:06 51°15.362 2°54 7.7 308 7.9 103320 49
2012-01-10 08:02:11 51°15.375 2°53.984 6.3 21 7.9 103320 50
2012-01-10 08:02:17 51°15.391 2°53.965 7.3 304 7.9 103320 50
2012-01-10 08:02:21 51°15.401 2°53.951 6.2 27 7.9 103320 50
2012-01-10 08:02:26 51°15.414 2°53.934 6 310 7.9 103320 50
2012-01-10 08:02:31 51°15.426 2°53.917 6.3 19 7.9 103320 50
2012-01-10 08:02:36 51°15.439 2°53.9 6.2 310 7.9 103320 50
2012-01-10 08:02:41 51°15.452 2°53.883 6.1 19 7.9 103320 48
2012-01-10 08:02:46 51°15.465 2°53.867 6 307 7.9 103320 48
2012-01-10 08:02:51 51°15.478 2°53.85 5.5 20 7.9 103310 48
2012-01-10 08:02:56 51°15.491 2°53.833 7.1 309 7.9 103310 48
2012-01-10 08:03:01 51°15.503 2°53.816 6.2 21 7.9 103320 50
2012-01-10 08:03:06 51°15.516 2°53.799 6.2 307 7.9 103320 50
2012-01-10 08:03:11 51°15.529 2°53.782 6 26 7.9 103320 50
2012-01-10 08:03:16 51°15.542 2°53.766 5.8 311 7.9 103320 50
2012-01-10 08:03:21 51°15.555 2°53.75 6.1 27 7.9 103320 48
2012-01-10 08:03:26 51°15.569 2°53.734 6.6 305 7.9 103320 48
2012-01-10 08:03:31 51°15.582 2°53.717 6.4 27 7.9 103320 51
2012-01-10 08:03:36 51°15.595 2°53.701 5.6 303 7.9 103320 51
2012-01-10 08:03:41 51°15.609 2°53.686 7.5 22 7.9 103320 50
2012-01-10 08:03:46 51°15.622 2°53.67 6.8 304 7.9 103320 50
2012-01-10 08:03:51 51°15.636 2°53.656 5.7 23 7.9 103320 51
2012-01-10 08:03:56 51°15.65 2°53.642 5.5 308 7.9 103320 51
2012-01-10 08:04:01 51°15.665 2°53.629 5.4 24 7.9 103320 51
2012-01-10 08:04:06 51°15.679 2°53.615 5.1 303 7.9 103320 51
2012-01-10 08:04:11 51°15.694 2°53.603 5.6 20 7.9 103320 50
2012-01-10 08:04:16 51°15.708 2°53.589 5.3 310 7.9 103320 50
2012-01-10 08:04:21 51°15.722 2°53.577 5.4 25 7.9 103320 51
2012-01-10 08:04:26 51°15.737 2°53.563 4.9 305 7.9 103320 51
2012-01-10 08:04:31 51°15.751 2°53.552 5.5 22 7.9 103320 50
2012-01-10 08:04:36 51°15.766 2°53.54 4.8 305 7.9 103320 50
2012-01-10 08:04:41 51°15.781 2°53.528 5.3 27 7.9 103320 51
2012-01-10 08:04:46 51°15.796 2°53.516 4.7 309 7.9 103320 51
2012-01-10 08:04:51 51°15.811 2°53.505 4.3 24 8 103320 49
2012-01-10 08:04:56 51°15.826 2°53.494 4.6 310 8 103320 49
2012-01-10 08:05:02 51°15.844 2°53.482 4.5 24 7.9 103320 52
2012-01-10 08:05:06 51°15.856 2°53.474 4.6 303 7.9 103320 52
2012-01-10 08:05:11 51°15.871 2°53.465 4.5 21 8 103320 49
2012-01-10 08:05:16 51°15.887 2°53.455 4.4 309 8 103320 49
2012-01-10 08:05:21 51°15.902 2°53.446 4.3 20 8 103320 48
2012-01-10 08:05:26 51°15.918 2°53.437 4.5 304 8 103320 48
2012-01-10 08:05:31 51°15.933 2°53.428 4.1 19 8 103320 48
2012-01-10 08:05:36 51°15.948 2°53.418 4 308 8 103320 48
2012-01-10 08:05:41 51°15.962 2°53.406 4.6 22 8 103320 51
2012-01-10 08:05:46 51°15.977 2°53.395 4.7 305 8 103320 51
2012-01-10 08:05:51 51°15.992 2°53.384 4.5 22 8 103320 51
2012-01-10 08:05:56 51°16.007 2°53.371 4.3 304 8 103320 51
2012-01-10 08:06:01 51°16.021 2°53.359 4.4 22 8 103320 51
2012-01-10 08:06:06 51°16.035 2°53.347 4.5 304 8 103320 51
2012-01-10 08:06:11 51°16.05 2°53.334 4.3 19 8 103320 49
2012-01-10 08:06:16 51°16.065 2°53.322 4.4 309 8 103320 49
2012-01-10 08:06:21 51°16.079 2°53.31 4.6 25 8 103320 49
2012-01-10 08:06:26 51°16.094 2°53.298 4.3 310 8 103320 49
2012-01-10 08:06:31 51°16.108 2°53.286 4.7 20 8 103320 48
2012-01-10 08:06:36 51°16.123 2°53.274 4 305 8 103320 48
2012-01-10 08:06:41 51°16.137 2°53.262 4.5 20 8 103320 49
2012-01-10 08:06:46 51°16.152 2°53.249 5.1 310 8 103320 49
2012-01-10 08:06:51 51°16.166 2°53.236 4.7 25 8 103320 47
2012-01-10 08:06:57 51°16.182 2°53.219 4.8 305 8 103320 47
2012-01-10 08:07:01 51°16.193 2°53.207 5.2 18 8 103320 52
2012-01-10 08:07:06 51°16.207 2°53.193 5.2 308 8 103320 52
2012-01-10 08:07:11 51°16.22 2°53.177 5.4 20 8 103320 50
2012-01-10 08:07:16 51°16.234 2°53.162 5.9 309 8 103320 50
2012-01-10 08:07:21 51°16.247 2°53.146 4.4 20 8 103320 51
2012-01-10 08:07:26 51°16.26 2°53.131 4.4 305 8 103320 51
2012-01-10 08:07:31 51°16.274 2°53.116 4.8 19 8 103320 52
2012-01-10 08:07:36 51°16.287 2°53.101 4.5 304 8 103320 52
2012-01-10 08:07:41 51°16.301 2°53.086 4.6 27 8 103320 49
2012-01-10 08:07:46 51°16.314 2°53.07 5.4 306 8 103320 49
2012-01-10 08:07:51 51°16.327 2°53.055 5.2 22 8 103320 48
2012-01-10 08:07:56 51°16.341 2°53.041 4.8 307 8 103320 48
2012-01-10 08:08:01 51°16.355 2°53.027 4.7 20 8 103320 48
2012-01-10 08:08:06 51°16.368 2°53.013 5.3 308 8 103320 48
2012-01-10 08:08:11 51°16.382 2°53 4.8 18 8 103320 52
2012-01-10 08:08:16 51°16.396 2°52.986 5.1 309 8 103320 52
2012-01-10 08:08:21 51°16.41 2°52.972 5 18 8 103320 48
2012-01-10 08:08:26 51°16.424 2°52.958 4.8 306 8 103320 48
2012-01-10 08:08:31 51°16.438 2°52.944 5.1 22 8 103320 48
2012-01-10 08:08:36 51°16.452 2°52.93 5.3 303 8 103320 48
2012-01-10 08:08:41 51°16.466 2°52.916 5.6 21 8 103320 48
2012-01-10 08:08:46 51°16.479 2°52.902 5.3 306 8 103320 48
2012-01-10 08:08:51 51°16.494 2°52.889 5.4 25 8 103320 48
2012-01-10 08:08:56 51°16.508 2°52.875 6.1 308 8 103320 48
2012-01-10 08:09:01 51°16.522 2°52.862 5 24 8 103320 52
2012-01-10 08:09:06 51°16.536 2°52.849 5 303 8 103320 52
2012-01-10 08:09:11 51°16.55 2°52.836 5.1 26 8 103320 50
2012-01-10 08:09:17 51°16.567 2°52.82 5 306 8 103320 50
2012-01-10 08:09:21 51°16.578 2°52.81 5.9 26 8 103320 52
2012-01-10 08:09:26 51°16.592 2°52.797 5.8 308 8 103320 52
2012-01-10 08:09:31 51°16.606 2°52.785 6.1 22 8 103320 50
2012-01-10 08:09:36 51°16.62 2°52.772 4.9 305 8 103320 50
2012-01-10 08:09:42 51°16.637 2°52.756 5.2 23 8 103320 51
2012-01-10 08:09:46 51°16.648 2°52.746 5.5 304 8 103320 51
2012-01-10 08:09:51 51°16.662 2°52.733 5 26 8.1 103320 48
2012-01-10 08:09:56 51°16.676 2°52.721 6.4 307 8.1 103320 48
2012-01-10 08:10:01 51°16.69 2°52.708 6.1 23 8.1 103320 52
2012-01-10 08:10:06 51°16.704 2°52.696 6 307 8.1 103320 52
2012-01-10 08:10:11 51°16.718 2°52.683 5.4 19 8.1 103320 51
2012-01-10 08:10:16 51°16.732 2°52.671 6 307 8.1 103320 51
2012-01-10 08:10:21 51°16.745 2°52.659 5.7 22 8.1 103320 50
2012-01-10 08:10:26 51°16.759 2°52.647 5.4 309 8.1 103320 50
2012-01-10 08:10:31 51°16.773 2°52.635 5.5 25 8.1 103320 49
2012-01-10 08:10:36 51°16.787 2°52.623 6.3 305 8.1 103320 49
2012-01-10 08:10:41 51°16.801 2°52.612 5.8 19 8.1 103320 49
2012-01-10 08:10:46 51°16.815 2°52.6 5.2 285 8.1 103320 49
2012-01-10 08:10:51 51°16.829 2°52.589 5.4 24 8.1 103320 48
2012-01-10 08:10:56 51°16.842 2°52.577 5.9 307 8.1 103320 48
2012-01-10 08:11:01 51°16.856 2°52.566 6.5 20 8.1 103320 48
2012-01-10 08:11:06 51°16.87 2°52.554 6 305 8.1 103320 48
2012-01-10 08:11:11 51°16.884 2°52.543 5.4 21 8.1 103320 49
2012-01-10 08:11:16 51°16.898 2°52.531 5.8 305 8.1 103320 49
2012-01-10 08:11:21 51°16.912 2°52.52 5.7 19 8.1 103320 51
2012-01-10 08:11:26 51°16.926 2°52.509 6.3 306 8.1 103320 51
2012-01-10 08:11:31 51°16.94 2°52.498 6.3 22 8.1 103310 52
2012-01-10 08:11:36 51°16.953 2°52.487 6.4 305 8.1 103310 52
2012-01-10 08:11:41 51°16.967 2°52.475 6.4 18 8.1 103320 51
2012-01-10 08:11:46 51°16.981 2°52.464 6.3 310 8.1 103320 51
2012-01-10 08:11:51 51°16.995 2°52.452 5.7 21 8.1 103320 50
2012-01-10 08:11:56 51°17.008 2°52.44 5.4 309 8.1 103320 50
2012-01-10 08:12:02 51°17.025 2°52.426 6.2 23 8.1 103320 48
2012-01-10 08:12:06 51°17.036 2°52.417 6.5 304 8.1 103320 48
2012-01-10 08:12:11 51°17.05 2°52.405 5.9 27 8.1 103320 48
2012-01-10 08:12:16 51°17.064 2°52.393 6.7 306 8.1 103320 48
2012-01-10 08:12:21 51°17.077 2°52.381 6 25 8.1 103320 51
2012-01-10 08:12:26 51°17.091 2°52.368 6.5 307 8.1 103320 51
2012-01-10 08:12:31 51°17.105 2°52.356 5.6 24 8.2 103320 49
2012-01-10 08:12:36 51°17.118 2°52.343 5.6 307 8.2 103320 49
2012-01-10 08:12:41 51°17.132 2°52.331 6 20 8.1 103320 51
2012-01-10 08:12:46 51°17.145 2°52.318 6 308 8.1 103320 51
2012-01-10 08:12:51 51°17.159 2°52.305 5.5 19 8.2 103320 48
2012-01-10 08:12:56 51°17.172 2°52.292 5.9 303 8.2 103320 48
2012-01-10 08:13:01 51°17.186 2°52.279 6.1 26 8.2 103320 48
2012-01-10 08:13:06 51°17.199 2°52.266 5.7 304 8.2 103320 48
2012-01-10 08:13:11 51°17.213 2°52.253 6.2 25 8.2 103320 49
2012-01-10 08:13:16 51°17.226 2°52.24 5.5 305 8.2 103320 49
2012-01-10 08:13:21 51°17.24 2°52.227 5.8 23 8.2 103310 51
2012-01-10 08:13:26 51°17.254 2°52.214 5.8 304 8.2 103310 51
2012-01-10 08:13:31 51°17.267 2°52.202 6.1 24 8.2 103310 51
2012-01-10 08:13:36 51°17.281 2°52.189 6.1 309 8.2 103310 51
2012-01-10 08:13:41 51°17.295 2°52.176 5.9 26 8.2 103310 49
2012-01-10 08:13:46 51°17.308 2°52.164 5.5 279 8.2 103310 49
2012-01-10 08:13:51 51°17.322 2°52.152 5.6 24 8.2 103320 48
2012-01-10 08:13:56 51°17.336 2°52.141 5 311 8.2 103320 48
2012-01-10 08:14:02 51°17.353 2°52.128 6.1 25 8.2 103320 49
2012-01-10 08:14:06 51°17.364 2°52.119 5.1 306 8.2 103320 49
2012-01-10 08:14:11 51°17.379 2°52.109 6.1 27 8.2 103310 51
2012-01-10 08:14:16 51°17.393 2°52.098 5.4 309 8.2 103310 51
2012-01-10 08:14:22 51°17.41 2°52.086 5.8 22 8.2 103310 51
2012-01-10 08:14:26 51°17.421 2°52.078 5 303 8.2 103310 51
2012-01-10 08:14:31 51°17.436 2°52.068 5.3 26 8.2 103310 49
2012-01-10 08:14:36 51°17.45 2°52.057 6.7 304 8.2 103310 49
2012-01-10 08:14:41 51°17.464 2°52.046 6.2 25 8.2 103320 52
2012-01-10 08:14:46 51°17.478 2°52.035 6.6 285 8.2 103320 52
2012-01-10 08:14:51 51°17.492 2°52.025 6.1 26 8.2 103320 48
2012-01-10 08:14:56 51°17.506 2°52.014 5.2 307 8.2 103320 48
2012-01-10 08:15:01 51°17.52 2°52.004 5.3 24 8.2 103310 50
2012-01-10 08:15:06 51°17.534 2°51.993 5.7 307 8.2 103310 50
2012-01-10 08:15:11 51°17.548 2°51.982 6.4 21 8.2 103310 51
2012-01-10 08:15:16 51°17.562 2°51.971 5.9 304 8.2 103310 51
2012-01-10 08:15:21 51°17.576 2°51.959 5.4 25 8.2 103320 51
2012-01-10 08:15:26 51°17.589 2°51.947 5.2 309 8.2 103320 51
2012-01-10 08:15:31 51°17.603 2°51.935 6.1 26 8.2 103310 49
2012-01-10 08:15:36 51°17.617 2°51.924 5.2 308 8.2 103310 49
2012-01-10 08:15:41 51°17.631 2°51.913 5.2 26 8.2 103310 48
2012-01-10 08:15:46 51°17.645 2°51.902 6.3 281 8.2 103310 48
2012-01-10 08:15:51 51°17.659 2°51.89 6.2 25 8.2 103310 52
2012-01-10 08:15:57 51°17.675 2°51.876 5.1 309 8.2 103310 52
2012-01-10 08:16:01 51°17.686 2°51.867 5.7 26 8.2 103320 51
2012-01-10 08:16:06 51°17.7 2°51.855 6.1 302 8.2 103320 51
2012-01-10 08:16:11 51°17.714 2°51.843 5.7 19 8.2 103320 52
2012-01-10 08:16:16 51°17.728 2°51.831 6.2 310 8.2 103320 52
2012-01-10 08:16:21 51°17.741 2°51.818 6.7 22 8.2 103310 49
2012-01-10 08:16:26 51°17.755 2°51.805 6.6 309 8.2 103310 49
2012-01-10 08:16:31 51°17.769 2°51.793 6 20 8.3 103310 52
2012-01-10 08:16:36 51°17.782 2°51.78 5.8 306 8.3 103310 52
2012-01-10 08:16:42 51°17.798 2°51.765 6 26 8.3 103310 51
2012-01-10 08:16:46 51°17.809 2°51.754 6.2 287 8.3 103310 51
2012-01-10 08:16:51 51°17.823 2°51.741 5.1 25 8.3 103310 51
2012-01-10 08:16:56 51°17.836 2°51.728 5.9 308 8.3 103310 51
2012-01-10 08:17:01 51°17.85 2°51.715 6.4 24 8.3 103310 52
2012-01-10 08:17:06 51°17.864 2°51.702 6.8 308 8.3 103310 52
2012-01-10 08:17:11 51°17.877 2°51.689 5.7 21 8.3 103320 52
2012-01-10 08:17:16 51°17.891 2°51.676 6.3 307 8.3 103320 52
2012-01-10 08:17:21 51°17.904 2°51.664 5.5 21 8.3 103320 51
2012-01-10 08:17:26 51°17.918 2°51.652 6.5 306 8.3 103320 51
2012-01-10 08:17:31 51°17.932 2°51.64 5.1 27 8.3 103320 50
2012-01-10 08:17:36 51°17.946 2°51.629 6.1 307 8.3 103320 50
2012-01-10 08:17:41 51°17.96 2°51.618 6.1 27 8.3 103310 49
2012-01-10 08:17:46 51°17.974 2°51.606 5.8 307 8.3 103310 49
2012-01-10 08:17:51 51°17.988 2°51.596 5.9 24 8.3 103310 50
2012-01-10 08:17:56 51°18.002 2°51.584 6.5 305 8.3 103310 50
2012-01-10 08:18:01 51°18.016 2°51.572 5.5 27 8.3 103320 51
2012-01-10 08:18:06 51°18.03 2°51.561 5.3 310 8.3 103320 51
2012-01-10 08:18:11 51°18.044 2°51.55 5.7 20 8.3 103310 49
2012-01-10 08:18:17 51°18.061 2°51.536 5.7 307 8.3 103310 49
2012-01-10 08:18:21 51°18.072 2°51.527 5.5 27 8.3 103320 49
2012-01-10 08:18:26 51°18.086 2°51.515 5.9 305 8.3 103320 49
2012-01-10 08:18:31 51°18.1 2°51.502 5.8 20 8.3 103310 52
2012-01-10 08:18:36 51°18.114 2°51.489 5.3 304 8.3 103310 52
2012-01-10 08:18:42 51°18.131 2°51.474 5.5 24 8.3 103310 50
2012-01-10 08:18:46 51°18.142 2°51.463 5.5 282 8.3 103310 50
2012-01-10 08:18:51 51°18.156 2°51.45 6.4 24 8.3 103310 51
2012-01-10 08:18:56 51°18.17 2°51.437 6.2 303 8.3 103310 51
2012-01-10 08:19:02 51°18.186 2°51.421 5.7 19 8.3 103310 50
2012-01-10 08:19:06 51°18.197 2°51.411 5.5 303 8.3 103310 50
2012-01-10 08:19:11 51°18.211 2°51.398 5.7 20 8.3 103320 52
2012-01-10 08:19:16 51°18.225 2°51.385 6.7 308 8.3 103320 52
2012-01-10 08:19:21 51°18.239 2°51.373 5.5 19 8.3 103310 48
2012-01-10 08:19:26 51°18.254 2°51.36 6.4 302 8.3 103310 48
2012-01-10 08:19:31 51°18.267 2°51.347 6 20 8.3 103310 48
2012-01-10 08:19:36 51°18.281 2°51.333 6.1 305 8.3 103310 48
2012-01-10 08:19:41 51°18.295 2°51.32 6.3 20 8.3 103310 50
2012-01-10 08:19:46 51°18.309 2°51.307 5.6 281 8.3 103310 50
2012-01-10 08:19:51 51°18.323 2°51.293 6.8 23 8.3 103310 52
2012-01-10 08:19:56 51°18.337 2°51.28 5.8 304 8.3 103310 52
2012-01-10 08:20:01 51°18.351 2°51.267 5.2 20 8.3 103310 52
2012-01-10 08:20:06 51°18.365 2°51.254 5.2 305 8.3 103310 52
2012-01-10 08:20:11 51°18.379 2°51.241 5.6 25 8.3 103310 50
2012-01-10 08:20:16 51°18.393 2°51.228 5.6 302 8.3 103310 50
2012-01-10 08:20:21 51°18.407 2°51.216 5.6 26 8.2 103310 48
2012-01-10 08:20:26 51°18.421 2°51.204 6 305 8.2 103310 48
2012-01-10 08:20:31 51°18.436 2°51.192 4.8 26 8.2 103310 50
2012-01-10 08:20:37 51°18.453 2°51.179 6 305 8.2 103310 50
2012-01-10 08:20:41 51°18.465 2°51.171 5.4 26 8.2 103310 50
2012-01-10 08:20:46 51°18.479 2°51.16 6.2 280 8.2 103310 50
2012-01-10 08:20:51 51°18.493 2°51.149 5 20 8.2 103310 51
2012-01-10 08:20:56 51°18.507 2°51.138 4.9 305 8.2 103310 51
2012-01-10 08:21:02 51°18.525 2°51.125 5.1 21 8.3 103320 50
2012-01-10 08:21:06 51°18.536 2°51.117 4.7 304 8.3 103320 50
2012-01-10 08:21:11 51°18.551 2°51.107 5.8 26 8.2 103320 50
2012-01-10 08:21:16 51°18.565 2°51.096 5.4 306 8.2 103320 50
2012-01-10 08:21:21 51°18.58 2°51.085 4.9 25 8.2 103310 49
2012-01-10 08:21:26 51°18.594 2°51.074 5.6 309 8.2 103310 49
2012-01-10 08:21:31 51°18.608 2°51.063 5.2 19 8.2 103310 52
2012-01-10 08:21:36 51°18.622 2°51.052 5.7 307 8.2 103310 52
2012-01-10 08:21:41 51°18.637 2°51.041 5.1 20 8.2 103310 50
2012-01-10 08:21:46 51°18.651 2°51.03 5 280 8.2 103310 50
2012-01-10 08:21:51 51°18.665 2°51.02 5 25 8.2 103320 52
2012-01-10 08:21:56 51°18.68 2°51.009 5.5 304 8.2 103320 52
2012-01-10 08:22:01 51°18.694 2°50.998 5.1 22 8.2 103310 52
2012-01-10 08:22:06 51°18.708 2°50.987 5.1 309 8.2 103310 52
2012-01-10 08:22:11 51°18.723 2°50.975 5.5 21 8.2 103310 50
2012-01-10 08:22:16 51°18.737 2°50.963 5.7 303 8.2 103310 50
2012-01-10 08:22:21 51°18.751 2°50.951 5.8 25 8.2 103320 50
2012-01-10 08:22:26 51°18.765 2°50.938 5.8 306 8.2 103320 50
2012-01-10 08:22:31 51°18.779 2°50.926 5.3 23 8.2 103310 51
2012-01-10 08:22:37 51°18.797 2°50.912 4.9 304 8.2 103310 51
2012-01-10 08:22:41 51°18.808 2°50.903 4.9 26 8.2 103310 52
2012-01-10 08:22:46 51°18.823 2°50.892 4.6 308 8.2 103310 52
2012-01-10 08:22:51 51°18.837 2°50.881 4.8 27 8.2 103320 48
2012-01-10 08:22:57 51°18.854 2°50.867 5.1 309 8.2 103320 48
2012-01-10 08:23:01 51°18.866 2°50.858 5.6 25 8.2 103320 52
2012-01-10 08:23:06 51°18.88 2°50.847 4.9 308 8.2 103320 52
2012-01-10 08:23:11 51°18.895 2°50.836 5.2 24 8.2 103320 48
2012-01-10 08:23:16 51°18.909 2°50.825 5.9 304 8.2 103320 48
2012-01-10 08:23:22 51°18.927 2°50.811 4.7 22 8.2 103320 50
2012-01-10 08:23:26 51°18.938 2°50.802 5.3 307 8.2 103320 50
2012-01-10 08:23:31 51°18.953 2°50.79 5.9 21 8.2 103320 48
2012-01-10 08:23:36 51°18.967 2°50.779 6.2 308 8.2 103320 48
2012-01-10 08:23:42 51°18.985 2°50.766 5.1 25 8.2 103320 52
2012-01-10 08:23:46 51°18.996 2°50.757 5.1 280 8.2 103320 52
2012-01-10 08:23:51 51°19.011 2°50.746 5.5 25 8.2 103320 49
2012-01-10 08:23:56 51°19.026 2°50.736 4.9 305 8.2 103320 49
2012-01-10 08:24:01 51°19.041 2°50.726 4.9 25 8.2 103320 52
2012-01-10 08:24:06 51°19.055 2°50.716 4.6 310 8.2 103320 52
2012-01-10 08:24:11 51°19.07 2°50.706 4.7 20 8.2 103320 48
2012-01-10 08:24:16 51°19.085 2°50.696 4.6 305 8.2 103320 48
2012-01-10 08:24:21 51°19.1 2°50.686 4.8 26 8.2 103330 48
2012-01-10 08:24:26 51°19.115 2°50.675 4.9 308 8.2 103330 48
2012-01-10 08:24:31 51°19.129 2°50.663 4.8 21 8.2 103320 48
2012-01-10 08:24:36 51°19.144 2°50.652 5 308 8.2 103320 48
2012-01-10 08:24:41 51°19.158 2°50.64 5.4 28 8.2 103320 48
2012-01-10 08:24:46 51°19.173 2°50.627 5.1 309 8.2 103320 48
2012-01-10 08:24:51 51°19.187 2°50.615 4.9 23 8.2 103310 48
2012-01-10 08:24:56 51°19.201 2°50.601 5.3 303 8.2 103310 48
2012-01-10 08:25:01 51°19.216 2°50.589 5.5 23 8.2 103320 48
2012-01-10 08:25:06 51°19.23 2°50.576 5.3 303 8.2 103320 48
2012-01-10 08:25:11 51°19.244 2°50.564 4.9 22 8.2 103320 52
2012-01-10 08:25:16 51°19.258 2°50.551 4.9 305 8.2 103320 52
2012-01-10 08:25:22 51°19.275 2°50.536 4.9 24 8.2 103320 51
2012-01-10 08:25:26 51°19.287 2°50.526 4.7 310 8.2 103320 51
2012-01-10 08:25:31 51°19.301 2°50.513 4.4 22 8.2 103320 47
2012-01-10 08:25:36 51°19.316 2°50.501 4.1 308 8.2 103320 47
2012-01-10 08:25:42 51°19.333 2°50.487 4.3 20 8.2 103320 50
2012-01-10 08:25:46 51°19.345 2°50.477 4.7 284 8.2 103320 50
2012-01-10 08:25:51 51°19.359 2°50.466 5.2 20 8.2 103310 52
2012-01-10 08:25:56 51°19.374 2°50.454 4.9 305 8.2 103310 52
2012-01-10 08:26:01 51°19.388 2°50.442 4.6 26 8.2 103330 49
2012-01-10 08:26:06 51°19.403 2°50.432 4.7 309 8.2 103330 49
2012-01-10 08:26:11 51°19.418 2°50.421 4.8 22 8.2 103320 50
2012-01-10 08:26:16 51°19.433 2°50.412 4.1 308 8.2 103320 50
2012-01-10 08:26:21 51°19.448 2°50.402 4 21 8.2 103320 48
2012-01-10 08:26:26 51°19.463 2°50.393 4.5 305 8.2 103320 48
2012-01-10 08:26:31 51°19.478 2°50.384 4.2 23 8.2 103320 50
2012-01-10 08:26:36 51°19.493 2°50.376 4.3 310 8.2 103320 50
2012-01-10 08:26:41 51°19.509 2°50.366 4.6 18 8.2 103320 48
2012-01-10 08:26:46 51°19.524 2°50.357 4.5 310 8.2 103320 48
2012-01-10 08:26:51 51°19.539 2°50.349 3.7 21 8.2 103320 50
2012-01-10 08:26:56 51°19.554 2°50.34 4.2 308 8.2 103320 50
2012-01-10 08:27:01 51°19.569 2°50.331 4 22 8.2 103320 48
2012-01-10 08:27:06 51°19.584 2°50.321 4.7 302 8.2 103320 48
2012-01-10 08:27:11 51°19.6 2°50.312 4.2 19 8.2 103320 51
2012-01-10 08:27:17 51°19.618 2°50.301 4 309 8.2 103320 51
2012-01-10 08:27:21 51°19.63 2°50.294 3.9 20 8.2 103320 49
2012-01-10 08:27:26 51°19.645 2°50.285 3.8 303 8.2 103320 49
2012-01-10 08:27:31 51°19.661 2°50.275 3.9 21 8.2 103320 48
2012-01-10 08:27:37 51°19.679 2°50.263 4.5 307 8.2 103320 48
2012-01-10 08:27:42 51°19.694 2°50.254 4.9 22 8.2 103320 49
2012-01-10 08:27:46 51°19.706 2°50.246 3.8 284 8.2 103320 49
2012-01-10 08:27:51 51°19.721 2°50.236 4.1 28 8.2 103320 48
2012-01-10 08:27:56 51°19.737 2°50.226 4.7 309 8.2 103320 48
2012-01-10 08:28:02 51°19.755 2°50.214 4.9 22 8.2 103320 49
2012-01-10 08:28:06 51°19.767 2°50.206 4.5 304 8.2 103320 49
2012-01-10 08:28:11 51°19.782 2°50.195 4.3 23 8.2 103310 51
2012-01-10 08:28:16 51°19.797 2°50.185 4.4 308 8.2 103310 51
2012-01-10 08:28:21 51°19.813 2°50.174 4.8 19 8.2 103320 49
2012-01-10 08:28:26 51°19.828 2°50.162 4.8 302 8.2 103320 49
2012-01-10 08:28:31 51°19.842 2°50.15 5 20 8.2 103320 48
2012-01-10 08:28:36 51°19.857 2°50.137 5.5 307 8.2 103320 48
2012-01-10 08:28:41 51°19.872 2°50.125 5.2 24 8.2 103320 49
2012-01-10 08:28:46 51°19.887 2°50.112 4.8 285 8.2 103320 49
2012-01-10 08:28:51 51°19.901 2°50.099 5.1 21 8.2 103320 52
2012-01-10 08:28:56 51°19.916 2°50.085 5.5 309 8.2 103320 52
2012-01-10 08:29:01 51°19.93 2°50.072 5.4 26 8.2 103320 49
2012-01-10 08:29:06 51°19.945 2°50.059 4.8 305 8.2 103320 49
2012-01-10 08:29:11 51°19.96 2°50.046 5.4 20 8.2 103310 49
2012-01-10 08:29:16 51°19.974 2°50.033 4.7 308 8.2 103310 49
2012-01-10 08:29:21 51°19.989 2°50.02 5 20 8.2 103320 51
2012-01-10 08:29:26 51°20.004 2°50.008 5.3 304 8.2 103320 51
2012-01-10 08:29:31 51°20.019 2°49.996 5.6 26 8.2 103320 51
2012-01-10 08:29:37 51°20.037 2°49.98 5.3 305 8.2 103320 51
2012-01-10 08:29:42 51°20.052 2°49.968 4.8 20 8.2 103320 52
2012-01-10 08:29:46 51°20.064 2°49.958 5 285 8.2 103320 52
2012-01-10 08:29:51 51°20.079 2°49.947 5.1 25 8.2 103320 51
2012-01-10 08:29:56 51°20.095 2°49.936 4.8 310 8.2 103320 51
2012-01-10 08:30:02 51°20.113 2°49.923 4.4 20 8.2 103310 52
2012-01-10 08:30:06 51°20.126 2°49.915 4.5 308 8.2 103310 52
2012-01-10 08:30:11 51°20.141 2°49.905 4.9 26 8.2 103320 52
2012-01-10 08:30:16 51°20.157 2°49.895 5.1 310 8.2 103320 52
2012-01-10 08:30:21 51°20.172 2°49.885 4.9 25 8.2 103320 49
2012-01-10 08:30:26 51°20.188 2°49.874 4.3 303 8.2 103320 49
2012-01-10 08:30:31 51°20.203 2°49.864 5.1 20 8.2 103320 52
2012-01-10 08:30:36 51°20.219 2°49.854 4.6 310 8.2 103320 52
2012-01-10 08:30:41 51°20.234 2°49.844 4.9 22 8.2 103320 49
2012-01-10 08:30:46 51°20.25 2°49.833 5.1 308 8.2 103320 49
2012-01-10 08:30:51 51°20.265 2°49.823 4.8 23 8.3 103320 50
2012-01-10 08:30:56 51°20.28 2°49.812 4.8 309 8.3 103320 50
2012-01-10 08:31:01 51°20.296 2°49.801 4.8 24 8.2 103320 51
2012-01-10 08:31:06 51°20.311 2°49.791 4.6 309 8.2 103320 51
2012-01-10 08:31:11 51°20.327 2°49.779 4.7 20 8.3 103320 49
2012-01-10 08:31:16 51°20.342 2°49.769 4.9 303 8.3 103320 49
2012-01-10 08:31:21 51°20.357 2°49.758 4.7 22 8.3 103320 52
2012-01-10 08:31:26 51°20.373 2°49.747 4.9 308 8.3 103320 52
2012-01-10 08:31:31 51°20.388 2°49.735 4.6 21 8.3 103320 52
2012-01-10 08:31:37 51°20.406 2°49.722 5 303 8.3 103320 52
2012-01-10 08:31:41 51°20.418 2°49.712 4.5 26 8.3 103320 49
2012-01-10 08:31:46 51°20.434 2°49.7 5.2 285 8.3 103320 49
2012-01-10 08:31:51 51°20.449 2°49.688 4.5 21 8.3 103310 49
2012-01-10 08:31:57 51°20.467 2°49.673 5.5 304 8.3 103310 49
2012-01-10 08:32:01 51°20.479 2°49.664 4.9 20 8.3 103320 49
2012-01-10 08:32:06 51°20.494 2°49.651 5 308 8.3 103320 49
2012-01-10 08:32:11 51°20.509 2°49.639 5.6 24 8.3 103310 49
2012-01-10 08:32:16 51°20.524 2°49.626 5.2 305 8.3 103310 49
2012-01-10 08:32:22 51°20.542 2°49.611 5.7 20 8.3 103310 49
2012-01-10 08:32:26 51°20.554 2°49.601 5.2 308 8.3 103310 49
2012-01-10 08:32:31 51°20.569 2°49.589 4.9 26 8.3 103310 49
2012-01-10 08:32:36 51°20.584 2°49.577 5.6 309 8.3 103310 49
2012-01-10 08:32:41 51°20.599 2°49.565 6.4 24 8.3 103310 52
2012-01-10 08:32:46 51°20.614 2°49.553 5 284 8.3 103310 52
2012-01-10 08:32:51 51°20.63 2°49.542 4.9 20 8.3 103310 49
2012-01-10 08:32:56 51°20.645 2°49.53 5.3 309 8.3 103310 49
2012-01-10 08:33:01 51°20.66 2°49.518 5.6 28 8.3 103310 49
2012-01-10 08:33:06 51°20.675 2°49.506 6 303 8.3 103310 49
2012-01-10 08:33:11 51°20.69 2°49.494 5.3 28 8.3 103310 52
2012-01-10 08:33:16 51°20.704 2°49.481 5.9 309 8.3 103310 52
2012-01-10 08:33:21 51°20.719 2°49.468 5.5 25 8.3 103320 49
2012-01-10 08:33:26 51°20.734 2°49.456 5.3 303 8.3 103320 49
2012-01-10 08:33:31 51°20.749 2°49.444 5.6 22 8.3 103310 51
2012-01-10 08:33:36 51°20.764 2°49.432 6 310 8.3 103310 51
2012-01-10 08:33:41 51°20.778 2°49.419 6.1 18 8.3 103310 51
2012-01-10 08:33:46 51°20.793 2°49.407 6.3 285 8.3 103310 51
2012-01-10 08:33:51 51°20.808 2°49.394 6 21 8.3 103310 49
2012-01-10 08:33:56 51°20.822 2°49.382 5.4 302 8.3 103310 49
2012-01-10 08:34:01 51°20.837 2°49.37 5.4 22 8.3 103310 52
2012-01-10 08:34:06 51°20.852 2°49.358 5.1 305 8.3 103310 52
2012-01-10 08:34:11 51°20.867 2°49.347 4.9 25 8.3 103310 49
2012-01-10 08:34:16 51°20.882 2°49.336 5.8 303 8.3 103310 49
2012-01-10 08:34:22 51°20.9 2°49.324 5.2 19 8.3 103320 51
2012-01-10 08:34:26 51°20.912 2°49.316 5.5 308 8.3 103320 51
2012-01-10 08:34:31 51°20.927 2°49.307 4.6 28 8.4 103310 49
2012-01-10 08:34:36 51°20.942 2°49.297 5.1 310 8.4 103310 49
2012-01-10 08:34:42 51°20.961 2°49.286 5.4 21 8.3 103320 51
2012-01-10 08:34:46 51°20.973 2°49.278 5 311 8.3 103320 51
2012-01-10 08:34:51 51°20.988 2°49.268 4.8 26 8.3 103310 49
2012-01-10 08:34:56 51°21.004 2°49.259 5.2 310 8.3 103310 49
2012-01-10 08:35:01 51°21.019 2°49.25 4.7 27 8.4 103320 50
2012-01-10 08:35:06 51°21.035 2°49.241 5 304 8.4 103320 50
2012-01-10 08:35:11 51°21.05 2°49.232 4.7 22 8.4 103310 50
2012-01-10 08:35:16 51°21.065 2°49.223 4.6 304 8.4 103310 50
2012-01-10 08:35:21 51°21.081 2°49.214 4.6 26 8.4 103310 49
2012-01-10 08:35:26 51°21.096 2°49.205 5 304 8.4 103310 49
2012-01-10 08:35:31 51°21.112 2°49.196 5.5 22 8.4 103310 52
2012-01-10 08:35:36 51°21.127 2°49.187 5 307 8.4 103310 52
2012-01-10 08:35:41 51°21.143 2°49.178 5.5 22 8.4 103310 49
2012-01-10 08:35:46 51°21.158 2°49.168 5.2 285 8.4 103310 49
2012-01-10 08:35:51 51°21.173 2°49.159 5 28 8.4 103310 50
2012-01-10 08:35:56 51°21.188 2°49.149 5.7 311 8.4 103310 50
2012-01-10 08:36:01 51°21.203 2°49.138 5.7 19 8.4 103310 49
2012-01-10 08:36:06 51°21.218 2°49.127 5.5 303 8.4 103310 49
2012-01-10 08:36:11 51°21.233 2°49.116 5.7 19 8.4 103310 51
2012-01-10 08:36:17 51°21.251 2°49.103 5.2 308 8.4 103310 51
2012-01-10 08:36:21 51°21.263 2°49.093 6.4 24 8.4 103310 52
2012-01-10 08:36:26 51°21.278 2°49.082 5 304 8.4 103310 52
2012-01-10 08:36:31 51°21.293 2°49.071 5 19 8.4 103310 51
2012-01-10 08:36:36 51°21.308 2°49.06 4.8 305 8.4 103310 51
2012-01-10 08:36:41 51°21.324 2°49.05 5 20 8.4 103310 52
2012-01-10 08:36:46 51°21.339 2°49.04 4.6 280 8.4 103310 52
2012-01-10 08:36:51 51°21.354 2°49.031 5.5 25 8.4 103310 51
2012-01-10 08:36:56 51°21.37 2°49.022 5.6 308 8.4 103310 51
2012-01-10 08:37:02 51°21.389 2°49.011 5.7 22 8.4 103310 52
2012-01-10 08:37:06 51°21.401 2°49.005 6.2 308 8.4 103310 52
2012-01-10 08:37:11 51°21.417 2°48.996 6.2 25 8.4 103310 49
2012-01-10 08:37:16 51°21.432 2°48.987 5.4 307 8.4 103310 49
2012-01-10 08:37:21 51°21.448 2°48.978 5.3 22 8.4 103310 52
2012-01-10 08:37:26 51°21.463 2°48.969 5.2 303 8.4 103310 52
2012-01-10 08:37:31 51°21.479 2°48.96 5.3 26 8.4 103310 51
2012-01-10 08:37:36 51°21.494 2°48.951 4.8 310 8.4 103310 51
2012-01-10 08:37:41 51°21.51 2°48.942 5.8 26 8.4 103310 51
2012-01-10 08:37:46 51°21.525 2°48.932 5.7 281 8.4 103310 51
2012-01-10 08:37:51 51°21.54 2°48.923 5.4 18 8.4 103310 49
2012-01-10 08:37:56 51°21.556 2°48.914 5 310 8.4 103310 49
2012-01-10 08:38:01 51°21.571 2°48.905 4.8 21 8.4 103310 49
2012-01-10 08:38:06 51°21.587 2°48.896 6 305 8.4 103310 49
2012-01-10 08:38:11 51°21.602 2°48.887 4.8 24 8.4 103310 52
2012-01-10 08:38:16 51°21.617 2°48.876 6.1 305 8.4 103310 52
2012-01-10 08:38:21 51°21.632 2°48.866 5.2 22 8.4 103310 49
2012-01-10 08:38:26 51°21.647 2°48.855 6.1 310 8.4 103310 49
2012-01-10 08:38:31 51°21.662 2°48.844 5.6 18 8.4 103310 50
2012-01-10 08:38:37 51°21.68 2°48.83 5.6 303 8.4 103310 50
2012-01-10 08:38:41 51°21.692 2°48.821 6 26 8.4 103300 52
2012-01-10 08:38:46 51°21.707 2°48.81 5.8 285 8.4 103300 52
2012-01-10 08:38:51 51°21.722 2°48.799 5.9 19 8.4 103310 50
2012-01-10 08:38:56 51°21.737 2°48.788 5.4 310 8.4 103310 50
2012-01-10 08:39:02 51°21.755 2°48.774 5.9 19 8.5 103300 50
2012-01-10 08:39:06 51°21.766 2°48.764 5.8 307 8.5 103300 50
2012-01-10 08:39:11 51°21.781 2°48.753 6.4 21 8.5 103300 49
2012-01-10 08:39:16 51°21.796 2°48.74 5.2 302 8.5 103300 49
2012-01-10 08:39:22 51°21.813 2°48.727 5.4 24 8.5 103300 51
2012-01-10 08:39:26 51°21.825 2°48.718 5.6 308 8.5 103300 51
2012-01-10 08:39:31 51°21.84 2°48.707 5.6 21 8.5 103300 52
2012-01-10 08:39:36 51°21.855 2°48.697 5.1 304 8.5 103300 52
2012-01-10 08:39:41 51°21.871 2°48.687 5.6 20 8.5 103300 51
2012-01-10 08:39:46 51°21.886 2°48.678 5.6 284 8.5 103300 51
2012-01-10 08:39:51 51°21.901 2°48.669 5.2 24 8.5 103300 51
2012-01-10 08:39:56 51°21.917 2°48.661 5.9 309 8.5 103300 51
2012-01-10 08:40:01 51°21.932 2°48.652 3.3 22 8.5 103300 49
2012-01-10 08:40:06 51°21.948 2°48.644 5.5 309 8.5 103300 49
2012-01-10 08:40:11 51°21.963 2°48.635 5.2 19 8.5 103300 52
2012-01-10 08:40:16 51°21.978 2°48.626 6 303 8.5 103300 52
2012-01-10 08:40:21 51°21.994 2°48.617 5.3 25 8.5 103310 53
2012-01-10 08:40:26 51°22.009 2°48.608 6.3 304 8.5 103310 53
2012-01-10 08:40:31 51°22.024 2°48.597 5.4 22 8.5 103310 52
2012-01-10 08:40:37 51°22.043 2°48.585 5 302 8.5 103310 52
2012-01-10 08:40:41 51°22.055 2°48.576 5.4 19 8.5 103310 51
2012-01-10 08:40:46 51°22.07 2°48.565 5.3 309 8.5 103310 51
2012-01-10 08:40:51 51°22.085 2°48.554 6.7 24 8.5 103300 50
2012-01-10 08:40:57 51°22.103 2°48.541 5.7 309 8.5 103300 50
2012-01-10 08:41:01 51°22.115 2°48.532 5.4 21 8.5 103300 52
2012-01-10 08:41:06 51°22.13 2°48.522 6.3 304 8.5 103300 52
2012-01-10 08:41:11 51°22.145 2°48.512 5.2 22 8.5 103310 50
2012-01-10 08:41:17 51°22.163 2°48.5 5.7 307 8.5 103310 50
2012-01-10 08:41:22 51°22.178 2°48.49 5.5 21 8.5 103300 50
2012-01-10 08:41:26 51°22.19 2°48.482 5.6 303 8.5 103300 50
2012-01-10 08:41:31 51°22.205 2°48.473 4.8 26 8.6 103300 49
2012-01-10 08:41:36 51°22.221 2°48.464 5 305 8.6 103300 49
2012-01-10 08:41:41 51°22.236 2°48.455 5.3 20 8.5 103300 50
2012-01-10 08:41:46 51°22.251 2°48.447 4.9 281 8.5 103300 50
2012-01-10 08:41:51 51°22.266 2°48.438 5 24 8.5 103300 52
2012-01-10 08:41:56 51°22.281 2°48.429 4.9 306 8.5 103300 52
2012-01-10 08:42:01 51°22.297 2°48.42 5 25 8.6 103300 50
2012-01-10 08:42:06 51°22.312 2°48.411 5.4 306 8.6 103300 50
2012-01-10 08:42:11 51°22.327 2°48.403 5.2 21 8.6 103300 52
2012-01-10 08:42:16 51°22.342 2°48.394 5.2 305 8.6 103300 52
2012-01-10 08:42:21 51°22.357 2°48.386 5.4 27 8.5 103310 49
2012-01-10 08:42:26 51°22.372 2°48.378 4.7 304 8.5 103310 49
2012-01-10 08:42:31 51°22.387 2°48.369 4.9 25 8.6 103300 50
2012-01-10 08:42:36 51°22.402 2°48.361 4.7 307 8.6 103300 50
2012-01-10 08:42:41 51°22.417 2°48.353 5 19 8.5 103300 50
2012-01-10 08:42:46 51°22.432 2°48.345 5.2 285 8.5 103300 50
2012-01-10 08:42:51 51°22.447 2°48.335 4.8 18 8.6 103300 50
2012-01-10 08:42:56 51°22.461 2°48.326 6 310 8.6 103300 50
2012-01-10 08:43:01 51°22.476 2°48.315 5.8 21 8.5 103300 51
2012-01-10 08:43:06 51°22.49 2°48.304 4.7 310 8.5 103300 51
2012-01-10 08:43:11 51°22.505 2°48.293 6 21 8.6 103300 50
2012-01-10 08:43:17 51°22.521 2°48.279 5.9 309 8.6 103300 50
2012-01-10 08:43:22 51°22.535 2°48.268 4.7 27 8.6 103300 50
2012-01-10 08:43:26 51°22.547 2°48.259 5.5 307 8.6 103300 50
2012-01-10 08:43:31 51°22.561 2°48.249 4.9 22 8.5 103300 52
2012-01-10 08:43:36 51°22.575 2°48.239 5.9 308 8.5 103300 52
2012-01-10 08:43:42 51°22.592 2°48.226 5.5 21 8.6 103300 50
2012-01-10 08:43:46 51°22.604 2°48.218 5 309 8.6 103300 50
2012-01-10 08:43:51 51°22.618 2°48.207 5.3 22 8.5 103310 50
2012-01-10 08:43:56 51°22.632 2°48.196 4.9 305 8.5 103310 50
2012-01-10 08:44:01 51°22.647 2°48.186 6.2 20 8.6 103300 52
2012-01-10 08:44:06 51°22.661 2°48.173 4.5 306 8.6 103300 52
2012-01-10 08:44:11 51°22.675 2°48.163 5.2 26 8.6 103300 52
2012-01-10 08:44:16 51°22.689 2°48.15 5.7 306 8.6 103300 52
2012-01-10 08:44:21 51°22.703 2°48.14 5.3 21 8.6 103310 52
2012-01-10 08:44:26 51°22.717 2°48.128 4.5 305 8.6 103310 52
2012-01-10 08:44:31 51°22.731 2°48.117 5.3 27 8.6 103310 53
2012-01-10 08:44:36 51°22.746 2°48.106 4.8 303 8.6 103310 53
2012-01-10 08:44:41 51°22.76 2°48.096 5.6 27 8.6 103310 52
2012-01-10 08:44:46 51°22.775 2°48.086 5.4 286 8.6 103310 52
2012-01-10 08:44:51 51°22.79 2°48.077 4.9 21 8.6 103300 51
2012-01-10 08:44:56 51°22.804 2°48.067 4.6 309 8.6 103300 51
2012-01-10 08:45:01 51°22.819 2°48.059 5.9 22 8.6 103310 50
2012-01-10 08:45:06 51°22.834 2°48.047 4.6 308 8.6 103310 50
2012-01-10 08:45:11 51°22.848 2°48.038 5.7 27 8.6 103300 49
2012-01-10 08:45:17 51°22.866 2°48.025 4.7 308 8.6 103300 49
2012-01-10 08:45:21 51°22.878 2°48.017 4.8 23 8.6 103300 52
2012-01-10 08:45:26 51°22.892 2°48.006 4.6 306 8.6 103300 52
2012-01-10 08:45:31 51°22.907 2°47.997 5.4 25 8.6 103300 52
2012-01-10 08:45:37 51°22.924 2°47.984 4.9 308 8.6 103300 52
2012-01-10 08:45:42 51°22.939 2°47.974 4.9 28 8.6 103300 52
2012-01-10 08:45:46 51°22.951 2°47.967 5.2 303 8.6 103300 52
2012-01-10 08:45:51 51°22.965 2°47.956 4.6 21 8.6 103300 49
2012-01-10 08:45:56 51°22.98 2°47.946 5.4 304 8.6 103300 49
2012-01-10 08:46:02 51°22.998 2°47.934 5.1 26 8.6 103300 53
2012-01-10 08:46:06 51°23.009 2°47.925 4.9 308 8.6 103300 53
2012-01-10 08:46:11 51°23.024 2°47.914 5.8 21 8.6 103290 51
2012-01-10 08:46:16 51°23.038 2°47.903 5.9 308 8.6 103290 51
2012-01-10 08:46:21 51°23.053 2°47.891 5.6 26 8.6 103290 51
2012-01-10 08:46:26 51°23.067 2°47.88 4.5 308 8.6 103290 51
2012-01-10 08:46:31 51°23.081 2°47.868 5.1 25 8.6 103300 50
2012-01-10 08:46:36 51°23.096 2°47.856 5.1 280 8.6 103300 50
2012-01-10 08:46:41 51°23.11 2°47.844 5.5 18 8.6 103290 51
2012-01-10 08:46:46 51°23.125 2°47.833 5.1 285 8.6 103290 51
2012-01-10 08:46:51 51°23.139 2°47.822 5.3 21 8.6 103300 49
2012-01-10 08:46:56 51°23.154 2°47.813 4.6 306 8.6 103300 49
2012-01-10 08:47:01 51°23.169 2°47.802 4.6 26 8.6 103300 49
2012-01-10 08:47:06 51°23.184 2°47.793 4.7 284 8.6 103300 49
2012-01-10 08:47:11 51°23.199 2°47.783 5.4 27 8.6 103300 50
2012-01-10 08:47:17 51°23.217 2°47.773 4.5 283 8.6 103300 50
2012-01-10 08:47:21 51°23.228 2°47.765 4.9 22 8.6 103300 51
2012-01-10 08:47:26 51°23.243 2°47.756 4.5 284 8.6 103300 51
2012-01-10 08:47:31 51°23.258 2°47.748 5.3 26 8.6 103300 49
2012-01-10 08:47:37 51°23.276 2°47.737 5 308 8.6 103300 49
2012-01-10 08:47:41 51°23.288 2°47.73 5.2 20 8.6 103290 53
2012-01-10 08:47:46 51°23.303 2°47.72 4.7 286 8.6 103290 53
2012-01-10 08:47:51 51°23.318 2°47.71 5.4 27 8.6 103300 53
2012-01-10 08:47:57 51°23.336 2°47.699 5.1 286 8.6 103300 53
2012-01-10 08:48:02 51°23.351 2°47.69 4.9 25 8.6 103300 53
2012-01-10 08:48:06 51°23.363 2°47.682 5 285 8.6 103300 53
2012-01-10 08:48:11 51°23.378 2°47.673 5.4 20 8.6 103300 53
2012-01-10 08:48:16 51°23.393 2°47.664 5.1 308 8.6 103300 53
2012-01-10 08:48:22 51°23.411 2°47.654 5.6 20 8.6 103290 50
2012-01-10 08:48:26 51°23.422 2°47.646 5.9 309 8.6 103290 50
2012-01-10 08:48:31 51°23.438 2°47.637 4.7 26 8.6 103290 53
2012-01-10 08:48:36 51°23.453 2°47.628 5.5 280 8.6 103290 53
2012-01-10 08:48:41 51°23.468 2°47.619 5.3 21 8.6 103290 53
2012-01-10 08:48:46 51°23.483 2°47.61 6.1 280 8.6 103290 53
2012-01-10 08:48:51 51°23.497 2°47.6 4.8 25 8.6 103290 50
2012-01-10 08:48:56 51°23.512 2°47.591 5 303 8.6 103290 50
2012-01-10 08:49:01 51°23.527 2°47.58 5.1 22 8.6 103290 50
2012-01-10 08:49:06 51°23.542 2°47.571 5.1 281 8.6 103290 50
2012-01-10 08:49:11 51°23.557 2°47.56 5.7 22 8.6 103290 51
2012-01-10 08:49:17 51°23.575 2°47.547 5.8 280 8.6 103290 51
2012-01-10 08:49:21 51°23.586 2°47.538 6 21 8.6 103290 52
2012-01-10 08:49:26 51°23.601 2°47.526 5.7 286 8.6 103290 52
2012-01-10 08:49:31 51°23.615 2°47.514 6.2 25 8.6 103290 48
2012-01-10 08:49:36 51°23.63 2°47.503 5.5 303 8.6 103290 48
2012-01-10 08:49:41 51°23.644 2°47.491 6.1 23 8.6 103290 50
2012-01-10 08:49:46 51°23.659 2°47.479 5.7 280 8.6 103290 50
2012-01-10 08:49:51 51°23.674 2°47.468 5.3 24 8.6 103290 51
2012-01-10 08:49:57 51°23.691 2°47.455 5.3 287 8.6 103290 51
2012-01-10 08:50:01 51°23.703 2°47.446 5.9 20 8.6 103290 50
2012-01-10 08:50:06 51°23.718 2°47.435 5.7 281 8.6 103290 50
2012-01-10 08:50:11 51°23.733 2°47.425 5.1 25 8.7 103290 50
2012-01-10 08:50:16 51°23.748 2°47.415 4.9 279 8.7 103290 50
2012-01-10 08:50:22 51°23.766 2°47.404 6.3 21 8.7 103290 51
2012-01-10 08:50:26 51°23.778 2°47.396 4.9 280 8.7 103290 51
2012-01-10 08:50:31 51°23.793 2°47.385 4.8 22 8.7 103290 52
2012-01-10 08:50:36 51°23.807 2°47.374 5.7 285 8.7 103290 52
2012-01-10 08:50:42 51°23.825 2°47.361 5.9 19 8.7 103290 53
2012-01-10 08:50:46 51°23.836 2°47.351 5.7 281 8.7 103290 53
2012-01-10 08:50:51 51°23.851 2°47.339 5.9 25 8.7 103290 51
2012-01-10 08:50:56 51°23.865 2°47.328 5.4 303 8.7 103290 51
2012-01-10 08:51:01 51°23.88 2°47.316 5.4 24 8.7 103290 50
2012-01-10 08:51:06 51°23.895 2°47.305 5.3 308 8.7 103290 50
2012-01-10 08:51:11 51°23.909 2°47.293 4.7 22 8.7 103290 53
2012-01-10 08:51:16 51°23.924 2°47.283 4.9 279 8.7 103290 53
2012-01-10 08:51:21 51°23.939 2°47.273 4.8 21 8.7 103290 50
2012-01-10 08:51:26 51°23.954 2°47.263 5.2 309 8.7 103290 50
2012-01-10 08:51:31 51°23.969 2°47.253 5.1 19 8.7 103290 52
2012-01-10 08:51:36 51°23.984 2°47.244 5 310 8.7 103290 52
2012-01-10 08:51:41 51°23.999 2°47.235 5.7 25 8.7 103290 51
2012-01-10 08:51:46 51°24.014 2°47.227 5.1 281 8.7 103290 51
2012-01-10 08:51:51 51°24.029 2°47.218 4.8 20 8.7 103290 50
2012-01-10 08:51:57 51°24.048 2°47.207 4.9 285 8.7 103290 50
2012-01-10 08:52:01 51°24.06 2°47.2 5.3 20 8.7 103290 52
2012-01-10 08:52:06 51°24.075 2°47.191 4.4 285 8.7 103290 52
2012-01-10 08:52:11 51°24.09 2°47.181 5.3 244 8.7 103290 51
2012-01-10 08:52:17 51°24.108 2°47.171 4.5 309 8.7 103290 51
2012-01-10 08:52:21 51°24.12 2°47.163 5.2 22 8.7 103290 50
2012-01-10 08:52:26 51°24.135 2°47.153 6.3 285 8.7 103290 50
2012-01-10 08:52:31 51°24.15 2°47.142 5 21 8.7 103290 52
2012-01-10 08:52:36 51°24.164 2°47.131 6.3 280 8.7 103290 52
2012-01-10 08:52:42 51°24.182 2°47.118 5.3 21 8.7 103290 53
2012-01-10 08:52:46 51°24.193 2°47.108 5.9 279 8.7 103290 53
2012-01-10 08:52:51 51°24.208 2°47.097 5.2 23 8.7 103280 51
2012-01-10 08:52:56 51°24.222 2°47.085 4.9 305 8.7 103280 51
2012-01-10 08:53:02 51°24.24 2°47.071 5 19 8.7 103290 53
2012-01-10 08:53:06 51°24.252 2°47.061 5 304 8.7 103290 53
2012-01-10 08:53:11 51°24.266 2°47.05 4.9 25 8.7 103290 53
2012-01-10 08:53:16 51°24.281 2°47.039 6.3 284 8.7 103290 53
2012-01-10 08:53:21 51°24.295 2°47.029 4.3 19 8.7 103280 51
2012-01-10 08:53:26 51°24.31 2°47.018 5.2 303 8.7 103280 51
2012-01-10 08:53:31 51°24.325 2°47.007 5 25 8.7 103280 52
2012-01-10 08:53:36 51°24.339 2°46.997 5.5 304 8.7 103280 52
2012-01-10 08:53:41 51°24.354 2°46.986 5.1 22 8.8 103290 50
2012-01-10 08:53:46 51°24.369 2°46.976 5.4 280 8.8 103290 50
2012-01-10 08:53:51 51°24.384 2°46.966 5.8 22 8.7 103280 51
2012-01-10 08:53:57 51°24.402 2°46.955 5 285 8.7 103280 51
2012-01-10 08:54:01 51°24.414 2°46.947 5.2 25 8.7 103290 52
2012-01-10 08:54:06 51°24.429 2°46.938 5.1 282 8.7 103290 52
2012-01-10 08:54:11 51°24.444 2°46.929 4.7 18 8.7 103280 53
2012-01-10 08:54:16 51°24.459 2°46.92 5.2 310 8.7 103280 53
2012-01-10 08:54:21 51°24.474 2°46.911 4.9 26 8.7 103280 50
2012-01-10 08:54:26 51°24.489 2°46.902 6.1 283 8.7 103280 50
2012-01-10 08:54:31 51°24.504 2°46.892 5.6 23 8.7 103290 51
2012-01-10 08:54:37 51°24.522 2°46.881 5.2 285 8.7 103290 51
2012-01-10 08:54:42 51°24.537 2°46.872 6.1 19 8.8 103290 50
2012-01-10 08:54:46 51°24.549 2°46.864 4.9 284 8.8 103290 50
2012-01-10 08:54:51 51°24.564 2°46.855 5.4 27 8.7 103280 52
2012-01-10 08:54:56 51°24.58 2°46.846 5.3 310 8.7 103280 52
2012-01-10 08:55:02 51°24.597 2°46.834 5.7 21 8.8 103280 53
2012-01-10 08:55:06 51°24.609 2°46.826 5.8 284 8.8 103280 53
2012-01-10 08:55:11 51°24.624 2°46.817 5.4 23 8.8 103290 52
2012-01-10 08:55:16 51°24.639 2°46.807 5.3 309 8.8 103290 52
2012-01-10 08:55:22 51°24.657 2°46.795 5.7 26 8.8 103290 50
2012-01-10 08:55:26 51°24.669 2°46.788 5.9 310 8.8 103290 50
2012-01-10 08:55:31 51°24.684 2°46.778 5.9 20 8.8 103280 53
2012-01-10 08:55:36 51°24.699 2°46.769 6.2 285 8.8 103280 53
2012-01-10 08:55:41 51°24.714 2°46.759 5.6 27 8.8 103290 50
2012-01-10 08:55:46 51°24.729 2°46.75 6.1 286 8.8 103290 50
2012-01-10 08:55:51 51°24.744 2°46.74 6.9 24 8.8 103290 53
2012-01-10 08:55:56 51°24.759 2°46.729 5.8 309 8.8 103290 53
2012-01-10 08:56:01 51°24.774 2°46.719 5.1 22 8.8 103290 53
2012-01-10 08:56:06 51°24.788 2°46.709 6.6 284 8.8 103290 53
2012-01-10 08:56:11 51°24.804 2°46.698 5.3 26 8.8 103290 53
2012-01-10 08:56:17 51°24.821 2°46.684 6.6 283 8.8 103290 53
2012-01-10 08:56:21 51°24.832 2°46.675 7.8 25 8.8 103290 53
2012-01-10 08:56:26 51°24.847 2°46.663 7 282 8.8 103290 53
2012-01-10 08:56:31 51°24.861 2°46.651 5.9 25 8.8 103290 50
2012-01-10 08:56:37 51°24.878 2°46.637 6.6 304 8.8 103290 50
2012-01-10 08:56:41 51°24.89 2°46.628 6.4 23 8.8 103290 50
2012-01-10 08:56:46 51°24.904 2°46.617 6.2 281 8.8 103290 50
2012-01-10 08:56:51 51°24.919 2°46.605 6.7 26 8.8 103290 50
2012-01-10 08:56:57 51°24.936 2°46.593 6.5 282 8.8 103290 50
2012-01-10 08:57:02 51°24.951 2°46.583 6.1 23 8.8 103290 53
2012-01-10 08:57:06 51°24.963 2°46.575 5.8 279 8.8 103290 53
2012-01-10 08:57:11 51°24.978 2°46.565 6.3 20 8.8 103280 51
2012-01-10 08:57:16 51°24.993 2°46.555 7 304 8.8 103280 51
2012-01-10 08:57:22 51°25.011 2°46.544 7.5 25 8.8 103290 53
2012-01-10 08:57:26 51°25.023 2°46.536 6.1 308 8.8 103290 53
2012-01-10 08:57:31 51°25.038 2°46.527 3.3 22 8.8 103300 49
2012-01-10 08:57:36 51°25.053 2°46.518 6.2 279 8.8 103300 49
2012-01-10 08:57:41 51°25.068 2°46.509 6.2 25 8.8 103290 50
2012-01-10 08:57:46 51°25.083 2°46.5 6.5 308 8.8 103290 50
2012-01-10 08:57:51 51°25.097 2°46.489 6.2 22 8.8 103290 50
2012-01-10 08:57:56 51°25.112 2°46.479 7.2 305 8.8 103290 50
2012-01-10 08:58:01 51°25.126 2°46.468 6.5 25 8.8 103290 51
2012-01-10 08:58:06 51°25.141 2°46.458 6.1 279 8.8 103290 51
2012-01-10 08:58:11 51°25.156 2°46.447 6 26 8.8 103290 50
2012-01-10 08:58:17 51°25.173 2°46.433 6.5 287 8.8 103290 50
2012-01-10 08:58:21 51°25.185 2°46.424 6.2 20 8.8 103290 50
2012-01-10 08:58:26 51°25.199 2°46.412 6.2 286 8.8 103290 50
2012-01-10 08:58:31 51°25.214 2°46.4 7.4 27 8.8 103290 53
2012-01-10 08:58:36 51°25.228 2°46.388 5.7 308 8.8 103290 53
2012-01-10 08:58:41 51°25.242 2°46.376 6.8 22 8.8 103290 50
2012-01-10 08:58:46 51°25.256 2°46.363 6.6 279 8.8 103290 50
2012-01-10 08:58:51 51°25.271 2°46.351 6.6 20 8.8 103290 51
2012-01-10 08:58:57 51°25.288 2°46.336 6.7 286 8.8 103290 51
2012-01-10 08:59:02 51°25.302 2°46.323 7.4 19 8.8 103290 50
2012-01-10 08:59:06 51°25.314 2°46.313 6.2 286 8.8 103290 50
2012-01-10 08:59:11 51°25.328 2°46.301 6.5 22 8.8 103290 51
2012-01-10 08:59:17 51°25.345 2°46.286 6.4 308 8.8 103290 51
2012-01-10 08:59:22 51°25.359 2°46.274 7.7 23 8.8 103280 50
2012-01-10 08:59:26 51°25.371 2°46.265 7.2 280 8.8 103280 50
2012-01-10 08:59:31 51°25.385 2°46.253 6.2 24 8.8 103290 50
2012-01-10 08:59:36 51°25.4 2°46.242 6.3 281 8.8 103290 50
2012-01-10 08:59:42 51°25.417 2°46.228 6 18 8.8 103290 51
2012-01-10 08:59:46 51°25.429 2°46.219 6.8 305 8.8 103290 51
2012-01-10 08:59:51 51°25.443 2°46.207 6.5 26 8.8 103290 50
2012-01-10 08:59:56 51°25.458 2°46.196 6.5 304 8.8 103290 50
2012-01-10 09:00:01 51°25.472 2°46.184 6.7 19 8.8 103290 50
2012-01-10 09:00:06 51°25.486 2°46.173 6.4 310 8.8 103290 50
2012-01-10 09:00:11 51°25.501 2°46.161 6.1 21 8.8 103290 49
2012-01-10 09:00:17 51°25.518 2°46.148 6.9 284 8.8 103290 49
2012-01-10 09:00:21 51°25.53 2°46.138 6 25 8.8 103290 52
2012-01-10 09:00:26 51°25.544 2°46.127 6.6 309 8.8 103290 52
2012-01-10 09:00:31 51°25.559 2°46.116 6.7 24 8.8 103290 53
2012-01-10 09:00:36 51°25.573 2°46.104 6.8 306 8.8 103290 53
2012-01-10 09:00:41 51°25.587 2°46.092 6.2 22 8.9 103280 53
2012-01-10 09:00:46 51°25.601 2°46.08 7.4 281 8.9 103280 53
2012-01-10 09:00:51 51°25.615 2°46.067 6.1 26 8.8 103290 52
2012-01-10 09:00:57 51°25.632 2°46.052 7.2 286 8.8 103290 52
2012-01-10 09:01:01 51°25.643 2°46.041 6.3 27 8.9 103290 53
2012-01-10 09:01:06 51°25.657 2°46.029 6 280 8.9 103290 53
2012-01-10 09:01:11 51°25.672 2°46.017 6.5 25 8.8 103280 52
2012-01-10 09:01:17 51°25.689 2°46.002 7.1 302 8.8 103280 52
2012-01-10 09:01:21 51°25.701 2°45.993 7.4 24 8.9 103290 50
2012-01-10 09:01:26 51°25.715 2°45.981 6.5 280 8.9 103290 50
2012-01-10 09:01:31 51°25.729 2°45.969 6.2 20 8.9 103290 53
2012-01-10 09:01:37 51°25.746 2°45.954 8.2 283 8.9 103290 53
2012-01-10 09:01:42 51°25.76 2°45.942 6.1 18 8.9 103290 50
2012-01-10 09:01:46 51°25.772 2°45.932 6.5 304 8.9 103290 50
2012-01-10 09:01:51 51°25.786 2°45.92 6.5 23 8.9 103280 50
2012-01-10 09:01:56 51°25.8 2°45.908 5.5 308 8.9 103280 50
2012-01-10 09:02:02 51°25.817 2°45.894 6.5 26 8.9 103280 53
2012-01-10 09:02:06 51°25.829 2°45.886 5.7 302 8.9 103280 53
2012-01-10 09:02:11 51°25.843 2°45.875 5.9 26 8.9 103280 51
2012-01-10 09:02:16 51°25.858 2°45.865 6.2 281 8.9 103280 51
2012-01-10 09:02:21 51°25.873 2°45.855 6.9 21 8.9 103290 52
2012-01-10 09:02:26 51°25.888 2°45.846 6.5 303 8.9 103290 52
2012-01-10 09:02:31 51°25.903 2°45.837 5.8 25 8.9 103290 52
2012-01-10 09:02:36 51°25.918 2°45.828 6.3 306 8.9 103290 52
2012-01-10 09:02:41 51°25.933 2°45.819 6.5 21 8.9 103290 50
2012-01-10 09:02:46 51°25.948 2°45.81 6.5 280 8.9 103290 50
2012-01-10 09:02:51 51°25.963 2°45.8 5.3 24 8.9 103290 52
2012-01-10 09:02:57 51°25.98 2°45.788 5.4 284 8.9 103290 52
2012-01-10 09:03:01 51°25.991 2°45.779 6.3 21 8.9 103290 53
2012-01-10 09:03:06 51°26.006 2°45.769 6 280 8.9 103290 53
2012-01-10 09:03:11 51°26.021 2°45.759 6.3 23 8.9 103290 50
2012-01-10 09:03:16 51°26.036 2°45.748 6.2 307 8.9 103290 50
2012-01-10 09:03:21 51°26.05 2°45.738 5.8 22 8.9 103290 50
2012-01-10 09:03:26 51°26.065 2°45.727 5.5 279 8.9 103290 50
2012-01-10 09:03:31 51°26.08 2°45.718 5.9 21 8.9 103290 53
2012-01-10 09:03:37 51°26.097 2°45.706 5.8 283 8.9 103290 53
2012-01-10 09:03:42 51°26.112 2°45.696 6 21 8.9 103290 50
2012-01-10 09:03:46 51°26.124 2°45.688 5.2 285 8.9 103290 50
2012-01-10 09:03:51 51°26.139 2°45.679 6.4 27 8.9 103290 53
2012-01-10 09:03:57 51°26.156 2°45.666 6.1 308 8.9 103290 53
2012-01-10 09:04:02 51°26.171 2°45.656 6.5 26 8.9 103290 51
2012-01-10 09:04:06 51°26.183 2°45.648 7.1 286 8.9 103290 51
2012-01-10 09:04:11 51°26.198 2°45.637 6.8 25 8.9 103290 53
2012-01-10 09:04:16 51°26.212 2°45.625 6.8 307 8.9 103290 53
2012-01-10 09:04:22 51°26.229 2°45.61 6.7 18 8.9 103290 53
2012-01-10 09:04:26 51°26.24 2°45.6 5.4 303 8.9 103290 53
2012-01-10 09:04:31 51°26.254 2°45.588 6 23 8.9 103290 51
2012-01-10 09:04:36 51°26.268 2°45.575 7.6 310 8.9 103290 51
2012-01-10 09:04:41 51°26.282 2°45.562 5.8 22 8.9 103290 53
2012-01-10 09:04:46 51°26.296 2°45.549 6.3 309 8.9 103290 53
2012-01-10 09:04:51 51°26.311 2°45.536 5.8 20 8.9 103290 50
2012-01-10 09:04:56 51°26.325 2°45.524 6 306 8.9 103290 50
2012-01-10 09:05:01 51°26.339 2°45.512 6.6 20 8.9 103290 51
2012-01-10 09:05:06 51°26.354 2°45.5 4.4 282 8.9 103290 51
2012-01-10 09:05:11 51°26.369 2°45.489 6.5 18 8.9 103290 53
2012-01-10 09:05:16 51°26.383 2°45.478 6 305 8.9 103290 53
2012-01-10 09:05:21 51°26.398 2°45.467 5.7 27 8.9 103290 50
2012-01-10 09:05:26 51°26.413 2°45.456 6.1 285 8.9 103290 50
2012-01-10 09:05:31 51°26.427 2°45.446 5.7 26 8.9 103300 51
2012-01-10 09:05:37 51°26.445 2°45.434 6 311 8.9 103300 51
2012-01-10 09:05:41 51°26.457 2°45.425 6.5 19 8.9 103290 52
2012-01-10 09:05:46 51°26.472 2°45.415 6.9 -999 8.9 103290 52
2012-01-10 09:05:51 51°26.487 2°45.404 6.3 20 8.9 103300 53
2012-01-10 09:05:57 51°26.505 2°45.391 6.3 310 8.9 103300 53
2012-01-10 09:06:01 51°26.517 2°45.383 6 24 8.9 103300 52
2012-01-10 09:06:06 51°26.531 2°45.372 6.5 286 8.9 103300 52
2012-01-10 09:06:11 51°26.546 2°45.361 7.1 21 8.9 103290 53
2012-01-10 09:06:16 51°26.561 2°45.35 7.1 305 8.9 103290 53
2012-01-10 09:06:22 51°26.578 2°45.337 7 22 8.9 103290 50
2012-01-10 09:06:26 51°26.59 2°45.327 6.2 309 8.9 103290 50
2012-01-10 09:06:31 51°26.604 2°45.316 6.1 27 8.9 103300 50
2012-01-10 09:06:36 51°26.618 2°45.303 6.2 308 8.9 103300 50
2012-01-10 09:06:41 51°26.632 2°45.29 6.1 21 8.9 103290 50
2012-01-10 09:06:46 51°26.646 2°45.278 6.8 308 8.9 103290 50
2012-01-10 09:06:51 51°26.66 2°45.264 7.2 20 8.9 103290 53
2012-01-10 09:06:56 51°26.675 2°45.251 6.2 303 8.9 103290 53
2012-01-10 09:07:01 51°26.689 2°45.238 6 28 8.9 103290 50
2012-01-10 09:07:06 51°26.703 2°45.225 6.4 306 8.9 103290 50
2012-01-10 09:07:11 51°26.717 2°45.212 5.8 19 8.9 103300 53
2012-01-10 09:07:16 51°26.731 2°45.199 6.2 303 8.9 103300 53
2012-01-10 09:07:21 51°26.745 2°45.186 6.5 20 8.9 103300 53
2012-01-10 09:07:26 51°26.76 2°45.173 6.5 286 8.9 103300 53
2012-01-10 09:07:31 51°26.774 2°45.162 5.6 21 8.9 103290 53
2012-01-10 09:07:36 51°26.789 2°45.15 5.8 305 8.9 103290 53
2012-01-10 09:07:41 51°26.803 2°45.139 5.5 21 8.9 103300 53
2012-01-10 09:07:46 51°26.818 2°45.128 5.4 -999 8.9 103300 53
2012-01-10 09:07:51 51°26.832 2°45.117 5.9 23 8.9 103290 52